Riverside, CA

1:01 PM PDT on June 25, 2018 (GMT -0700)
Riverside Municipal

Weather History for KRAL - October, 2017

Change the Weather History Date:

Sunday, October 8, 2017

  Actual Average Record
Temperature  
Mean Temperature 71 °F 70 °F  
Max Temperature 86 °F 84 °F 102 °F (1910)
Min Temperature 55 °F 57 °F 37 °F (1916)
Degree Days  
Heating Degree Days 0 0  
Month to date heating degree days 0 0  
Since 1 July heating degree days 1 2  
Cooling Degree Days 6 6  
Month to date cooling degree days 55 54  
Year to date cooling degree days 2050 1646  
Growing Degree Days 20 (Base 50)    
Moisture  
Dew Point 48 °F    
Average Humidity 54    
Maximum Humidity 90    
Minimum Humidity 18    
Precipitation  
Precipitation 0.00 in 0.01 in 0.02 in (1949)
Month to date precipitation 0.00 0.03  
Year to date precipitation 8.46 9.62  
Sea Level Pressure  
Sea Level Pressure 29.71 in    
Wind  
Wind Speed 4 mph (WNW)    
Max Wind Speed 20 mph    
Max Gust Speed 23 mph    
Visibility 10 miles    
Events      
T = Trace of Precipitation, MM = Missing Value Source: NWS Daily Summary

Daily Weather History Graph

Daily Weather History Graph

Search for Another Location

Airport or City:

Astronomy

Oct. 08, 2017 Rise Set
Actual Time 6:49 AM PDT 6:24 PM PDT
Civil Twilight 6:24 AM PDT 6:49 PM PDT
Nautical Twilight 5:55 AM PDT 7:18 PM PDT
Astronomical Twilight 5:26 AM PDT 7:47 PM PDT
Moon 8:56 PM PDT (10/8) 9:50 AM PDT (10/8)
Length of Visible Light 12h 24m
Length of Day
11h 34m
Waning Gibbous, 88% of the Moon is Illuminated
Oct 8
Waning Gibbous
Oct 12
Last Quarter
Oct 19
New
Oct 27
First Quarter
Nov 3
Full

Hourly Weather History & Observations

Time (PDT) Temp. Heat Index Dew Point Humidity Pressure Visibility Wind Dir Wind Speed Gust Speed Precip Events Conditions
12:53 AM 64.0 °F - 45.0 °F 50% 29.72 in 10.0 mi Calm Calm - N/A   Clear
1:53 AM 63.0 °F - 43.0 °F 48% 29.71 in 10.0 mi Calm Calm - N/A   Clear
2:53 AM 63.0 °F - 41.0 °F 45% 29.71 in 10.0 mi NNE 6.9 mph - N/A   Clear
3:53 AM 61.0 °F - 41.0 °F 48% 29.69 in 10.0 mi Calm Calm - N/A   Clear
4:53 AM 55.0 °F - 39.0 °F 55% 29.70 in 10.0 mi Calm Calm - N/A   Clear
5:53 AM 57.9 °F - 41.0 °F 53% 29.71 in 10.0 mi Calm Calm - N/A   Clear
6:53 AM 55.9 °F - 39.9 °F 55% 29.71 in 10.0 mi Calm Calm - N/A   Clear
7:53 AM 60.1 °F - 39.9 °F 47% 29.73 in 10.0 mi Calm Calm - N/A   Clear
8:53 AM 64.9 °F - 37.0 °F 36% 29.73 in 10.0 mi Calm Calm - N/A   Clear
9:53 AM 71.1 °F - 35.1 °F 27% 29.73 in 10.0 mi WSW 3.5 mph - N/A   Clear
10:53 AM 75.9 °F - 35.1 °F 23% 29.73 in 10.0 mi WNW 3.5 mph - N/A   Clear
11:53 AM 79.0 °F - 42.1 °F 27% 29.71 in 10.0 mi Variable 4.6 mph - N/A   Clear
12:53 PM 82.0 °F - 36.0 °F 19% 29.70 in 10.0 mi WNW 6.9 mph - N/A   Clear
1:53 PM 84.9 °F - 45.0 °F 25% 29.66 in 10.0 mi West 9.2 mph 16.1 mph N/A   Clear
2:53 PM 84.0 °F - 48.0 °F 28% 29.65 in 10.0 mi West 6.9 mph - N/A   Clear
3:53 PM 82.9 °F 82.1 °F 55.9 °F 39% 29.64 in 10.0 mi West 13.8 mph 19.6 mph N/A   Clear
4:53 PM 78.1 °F - 57.9 °F 50% 29.66 in 10.0 mi West 11.5 mph 21.9 mph N/A   Clear
5:53 PM 73.0 °F - 59.0 °F 61% 29.67 in 10.0 mi WNW 9.2 mph - N/A   Clear
6:53 PM 68.0 °F - 57.9 °F 70% 29.68 in 10.0 mi West 9.2 mph - N/A   Clear
7:53 PM 66.0 °F - 59.0 °F 78% 29.71 in 10.0 mi Calm Calm - N/A   Clear
8:53 PM 64.9 °F - 59.0 °F 81% 29.72 in 10.0 mi West 5.8 mph - N/A   Clear
9:53 PM 63.0 °F - 57.9 °F 84% 29.74 in 10.0 mi West 5.8 mph - N/A   Clear
10:53 PM 63.0 °F - 59.0 °F 87% 29.75 in 10.0 mi WNW 4.6 mph - N/A   Mostly Cloudy
11:41 PM 63.0 °F - 59.0 °F 87% 29.81 in 10.0 mi WNW 3.5 mph - N/A   Overcast
11:53 PM 63.0 °F - 59.0 °F 87% 29.77 in 10.0 mi West 4.6 mph - N/A   Overcast